Weather Roundup
Issued by NWS Springfield, MO

Home | Current Version | Previous Version | Text Only | Print | Product List | Glossary On
Versions: 1 2 3 4 5 6 7 8 9 10 11 12 13 14 15 16 17 18 19 20 21 22 23 24 25 26 27 28 29 30 31 32 33 34 35 36 37 38 39 40 41 42 43 44 45 46 47 48 49 50
000
NZUS99 KSGF 280259
HRRSGF

HOURLY WEATHER
NATIONAL WEATHER SERVICE SPRINGFIELD MO
1000 PM CDT MON APR 27 2015

......SGF CWA......

CITY           SKY/WX    TMP DP  RH WIND       PRES   REMARKS
SPRINGFIELD    CLOUDY    56  35  45 NE7       30.04R
JOPLIN         CLOUDY    56  38  50 NE7       30.05R
WEST PLAINS    MOCLDY    54  33  45 NE7       30.04R
ROLLA          PTCLDY    49  36  61 NE6       30.06R
OSAGE BEACH    MOCLDY    55  34  44 CALM      30.07R

......SURROUNDING SGF CWA......

CITY           SKY/WX    TMP DP  RH WIND       PRES   REMARKS
CHANUTE        CLOUDY    55  39  54 N5        30.08R
PARSONS        CLOUDY    56  40  55 N5        30.07R
COFFEYVILLE    CLOUDY    56  40  55 N9        30.05R
EMPORIA        CLOUDY    53  35  50 N6        30.10R
SILOAM SPRINGS CLOUDY   N/A N/A N/A CALM      30.02R
HARRISON AR    MOCLDY    58  35  42 NE8       30.01R
NEAR YELLVILLE PTCLDY    57  36  44 NE7       30.00R

......KANSAS AND MISSOURI......

CITY           SKY/WX    TMP DP  RH WIND       PRES   REMARKS
KANSAS CTY INT PTCLDY    53  36  52 NE7       30.10R
DOWNTOWN KC    PTCLDY    57  36  45 NE3       30.10R
COLUMBIA       CLEAR     52  39  61 NE9       30.09R
SEDALIA        PTCLDY    56  36  47 NE5       30.10R
ST JOSEPH      PTCLDY    49  39  68 N7        30.12R
ST LOUIS       PTCLDY    58  37  45 NE6       30.09R
SPIRIT OF STL  CLEAR     48  41  76 CALM      30.08R
KIRKSVILLE     PTCLDY    48  40  73 N3        30.12R
WICHITA        CLOUDY    58  36  43 NE9       30.10R
TOPEKA         PTCLDY    52  38  58 CALM      30.12R
OLATHE         FAIR      57  36  45 N5        30.09R

......TENNESSEE......

CITY           SKY/WX    TMP DP  RH WIND       PRES   REMARKS
MEMPHIS        MOCLDY    60  38  43 NE10      29.96R
NASHVILLE      CLEAR     53  39  59 N8        29.98S

......ARKANSAS.......

CITY           SKY/WX    TMP DP  RH WIND       PRES   REMARKS
FAYETTEVILLE   LGT RAIN  51  51 100 CALM      30.01R
FT SMITH       CLOUDY    61  39  44 E6        29.98R
LITTLE ROCK    CLOUDY    59  41  51 NE8       29.95S

......OKLAHOMA.......

CITY           SKY/WX    TMP DP  RH WIND       PRES   REMARKS
TULSA          LGT RAIN  52  50  93 NW6       30.06R
PONCA CITY     CLOUDY    50  49  96 W3        30.08R
MCALESTER      RAIN      54  47  77 NE9       30.00R
OKLAHOMA CITY  CLOUDY    49  45  86 NE16G23   30.02R

......IOWA............

CITY           SKY/WX    TMP DP  RH WIND       PRES   REMARKS
DES MOINES     CLEAR     59  32  36 E3        30.14R
QUAD CITIES    CLEAR     49  39  68 CALM      30.10R

......ILLINOIS........

CITY           SKY/WX    TMP DP  RH WIND       PRES   REMARKS
QUINCY         CLEAR     55  35  47 E5        30.10R
CHICAGO        PTCLDY    43  32  65 NE6       30.13R



USA.gov is the U.S. government's official web portal to all federal, state and local government web resources and services.